Regional Weather Roundup
Issued by NWS

Home | Current Version | Previous Version | Text Only | Print | Product List | Glossary Off
Versions: 1 2 3 4 5 6 7 8 9 10 11 12 13 14 15 16 17 18 19 20 21 22 23 24 25 26 27 28 29 30 31 32 33 34 35 36 37 38 39 40 41 42 43 44 45 46 47 48 49 50

000
ASUS43 KDTX 231001
RWRMI
MICHIGAN HOURLY REGIONAL WEATHER ROUNDUP
NATIONAL WEATHER SERVICE DETROIT/PONTIAC MI
600 AM EDT THU OCT 23 2014

NOTE: "FAIR" INDICATES FEW OR NO CLOUDS BELOW 12,000 FEET WITH NO
SIGNIFICANT WEATHER AND/OR OBSTRUCTION TO VISIBILITY.

MIZ047>049-052>055-059>063-066>070-074>076-081>083-231100-
SOUTHEAST LOWER MICHIGAN

CITY           SKY/WX    TMP DP  RH WIND       PRES   REMARKS
ADRIAN         CLEAR     33  32  96 CALM      30.26F FOG
ALMA           FOG       29  29 100 CALM      30.27R VSB 1/2
ANN ARBOR      CLEAR     29  27  92 CALM      30.25F
BAD AXE        FOG       26  26 100 CALM      30.25F VSB 3/4
CARO           FOG       27  27  99 CALM      30.26S VSB 3/4
DETROIT CITY   CLEAR     40  36  86 NW5       30.25F
DETROIT        CLEAR     37  35  92 W5        30.26S WCI  33
FLINT          FOG       30  27  88 CALM      30.27S VSB 1/4
GROSSE ILE     CLEAR     37  36  93 NW5       30.24S WCI  34
HILLSDALE      FOG       30  30 100 CALM      30.24F VSB 1/4
HOWELL         FOG       31  31 100 CALM      30.25S VSB 1/4

CITY           SKY/WX    TMP DP  RH WIND       PRES   REMARKS
JACKSON        FOG       28  27  96 CALM      30.25F VSB 1/2
LAMBERTVILLE   FOG       34  32  93 CALM      30.26S VSB 1
LANSING        CLEAR     30  29  96 CALM      30.26S FOG
LAPEER         CLOUDY    28  28  99 CALM      30.25F FOG
MASON          FOG       29  28  98 CALM      30.25F VSB 3/4
MONROE         CLEAR     34  34 100 CALM      30.24S FOG
MT. CLEMENS    CLEAR     37  37  99 NW6       30.23R WCI  32
PONTIAC        CLEAR     35  32  88 W3        30.25R
PORT HOPE        N/A     33  32  96 CALM      30.23F
PORT HURON     CLEAR     36  36 100 NW7       30.24S WCI  30
TRI CITIES     FOG       31  30  96 CALM      30.27S VSB 1/4
TROY           CLEAR     40  36  86 NW5       30.27S
SAGINAW HB     CLEAR     32  32 100 CALM      30.26S
$$
MIZ043>046-050>051-056>058-064>065-071>073-077>080-231100-
SOUTHWEST LOWER MICHIGAN

CITY           SKY/WX    TMP DP  RH WIND       PRES   REMARKS
BATTLE CREEK   FOG       31  29  92 CALM      30.26S VSB 1/4
BENTON HARBOR  CLEAR     33  33 100 SE6       30.25S FOG     WCI  28
BIG RAPIDS     FOG       28  28 100 CALM      30.24S VSB 1/4
COLDWATER      FOG       31  31  99 CALM      30.26R VSB 1/4
FREMONT        FOG       30  29  99 CALM      30.24F VSB 1/4
HOLLAND        FOG       33  30  88 SE3       30.25F VSB 1/4
GRAND RAPIDS   FOG       30  28  92 CALM      30.25S VSB 1/2
IONIA          FOG       31  31  99 CALM      30.25S VSB 1/4
KALAMAZOO      FOG       30  29  96 CALM      30.26S VSB 1/4
LUDINGTON      CLEAR     34  33  96 SE6       30.23F FOG     WCI  29
MARSHALL       FOG       28  28  99 CALM      30.26S VSB 1/4
MOUNT PLEASANT FOG       28  28  98 CALM      30.26S VSB 1/4
MUSKEGON       CLEAR     31  29  92 E3        30.25F FOG
SOUTH HAVEN    CLEAR     32  32  99 CALM      30.25S FOG
$$
MIZ016>042-231100-
NORTHERN LOWER MICHIGAN

CITY           SKY/WX    TMP DP  RH WIND       PRES   REMARKS
ALPENA         CLEAR     24  21  88 CALM      30.24F
BEAVER ISLAND  CLEAR     30  30  99 CALM      30.21S
BELLAIRE       CLEAR     27  26  96 CALM      30.24F
CADILLAC       FOG       24  24 100 CALM      30.22S VSB 1/4
CHARLEVOIX     CLEAR     34  34 100 S6        30.25S WCI  29
FRANKFORT      CLEAR     32  30  94 CALM      30.23S FOG
GAYLORD        FOG       27  27 100 CALM      30.22S VSB 1/4
GRAYLING       FOG       24  23  96 CALM      30.24S VSB 1/2
HARBOR SPRINGS CLEAR     30  28  93 CALM      30.23F
HOUGHTON LAKE  FOG       25  23  92 CALM      30.24S VSB 1/4
MANISTEE       CLEAR     28  25  86 E6        30.24S WCI  22
OSCODA         CLEAR     26  25  95 CALM      30.25F
PELLSTON       CLEAR     23  20  88 CALM      30.24S
TRAVERSE CITY  CLEAR     31  29  92 S3        30.23S
$$
MIZ007>008-015-231100-
EASTERN UPPER MICHIGAN

CITY           SKY/WX    TMP DP  RH WIND       PRES   REMARKS
KINROSS        CLEAR     34  34 100 SE5       30.22S WCI  30
MACKINAC ISLAN CLEAR     39  37  91 S5        30.22S
NEWBERRY       CLEAR     30  29  99 S6        30.19S WCI  24
S. S. MARIE    CLEAR     32  30  92 NE5       30.21F WCI  27
MUNISING         N/A     39  35  86 S6        30.17S WCI  35
$$
MIZ004>006-011>014-085-231100-
CENTRAL UPPER MICHIGAN

CITY           SKY/WX    TMP DP  RH WIND       PRES   REMARKS
MANISTIQUE     MOCLDY    45  40  85 S10       30.19S
ESCANABA         N/A     28  27  93 CALM      30.18S VSB 1/2
MENOMINEE      PTCLDY    39  36  87 S3        30.18S
SAWYER-GWINN   CLOUDY    39  38  96 S10       30.14F FOG     WCI  32
$$
MIZ001>003-009>011-084-231100-
WESTERN UPPER MICHIGAN

CITY           SKY/WX    TMP DP  RH WIND       PRES   REMARKS
IRON MOUNTAIN  CLOUDY    38  37  97 S8        30.14F FOG     WCI  32
HOUGHTON       LGT RAIN  42  38  85 S8        30.08S
COPPER HARBOR    N/A     45  40  82 SW8       30.08F
IRONWOOD       CLOUDY    48  43  81 S5G16     30.01S
$$

ABBREVIATIONS USED IN REMARKS
   TC - TEMPERATURE IN CELSIUS
  WCI - WIND CHILL INDEX
   HX - HEAT INDEX
  VSB - VISIBILITY




USA.gov is the U.S. government's official web portal to all federal, state and local government web resources and services.